星链-31933 (STARLINK-31933 )

导读 | 豆包AI

STARLINK-31933是美国SpaceX星链(Starlink)星座的成员卫星,于2024年5月24日发射升空,运行在近地轨道(LEO)。星链项目旨在通过大规模低轨卫星组网,为全球尤其是基础设施匮乏地区提供高速、低延迟的宽带互联网服务。该卫星的成功入轨,进一步拓展了星链星座的覆盖范围与服务能力,目前星链已为全球超125个国家超500万用户提供网络服务。

Basic Information
目录编号:
59874
目录名称:
STARLINK-31933
国际标识:
2024-098S
轨道中心:
EARTH
卫星名称:
星链-31933
卫星全名:
星链-31933 (STARLINK-31933 )
卫星状态:
在轨 (已飞行707 天)
发射日期:
2024-05-24 UTC
国别 :
美国 (US)
星等 :
--
Orbit Information
数据来源 国际轨道数据 AOE轨道数据
星历时间 2026-04-30T23:37:05+0800
10小时前
查看轨道信息
2026-04-28T16:00:00+0800
2天前
查看轨道信息
半长轴 6861.188km 6861.211km
偏心率 0.0000631 0.0001413
轨道倾角 43.003° 43.003°
近地点辐角 303.357° 246.107°
升交点赤经 344.487° 357.575°
平近点角 56.723° 314.910°
近地点 482.618km 482.104km
远地点 483.484km 484.044km
周期 94.267分钟 94.267分钟
每日圈数 15.275796 15.275718
Detailed Information
固有亮度:
5
最大亮度:
1.5
卫星平台:
Starlink v2.0 mini
覆盖范围:
全球
运营商:
太空探索技术公司
运营商所在国:
美国
制造商(研发单位):
太空探索技术公司
制造商所在国:
美国
使用方式:
暂无
Satellite Introduction
星链(Starlink)计划是由太空探索技术公司(SpaceX)提出的一个巨型低轨卫星互联网星座项目,计划在2019年至2024年间在太空搭建由约1.2万颗卫星组成的“星链”网络,其中1584颗将部署在地球上空550千米处的近地轨道,并从2020年开始工作。该卫星仍在工作。
2D Orbit Map
3D Orbit Map
Orbit Altitude Analysis Chart
Orbit Inclination Analysis Chart
Orbit Comprehensive Analysis Chart
View Comprehensive Chart